Regional Weather Roundup
Issued by NWS Pendleton, OR

Home | Current Version | Previous Version | Text Only | Print | Product List | Glossary On
Versions: 1 2 3 4 5 6 7 8 9 10 11 12 13 14 15 16 17 18 19 20 21 22 23 24 25 26 27 28 29 30 31 32 33 34 35 36 37 38 39 40 41 42 43 44 45 46 47 48 49 50
000
ASUS46 KPDT 171325
RWRPDT
PENDLETON REGIONAL WEATHER ROUNDUP
NATIONAL WEATHER SERVICE PENDLETON OREGON
500 AM PST WED JAN 17 2018

NOTE: FAIR INDICATES FEW OR NO CLOUDS BELOW 12,000 FEET WITH NO
SIGNIFICANT WEATHER AND/OR OBSTRUCTIONS TO VISIBILITY.

# INDICATES UNOFFICIAL STATION AND DATA

WAZ520-171410-
EAST SLOPES OF WASHINGTON CASCADES

CITY            SKY/WX      TMP DP  RH  WIND    PRES   REMARKS
#BULLFROG       N/A         35  34  96  CALM    N/A
#CLE ELUM HS    N/A         36  34  92  CALM    30.11F
#EASTON DOT     N/A         34  33  96  N1      N/A
#ELK HTS DOT    N/A         34  34  100 E2      N/A
#GLENWOOD       N/A         32  31  96  CALM    30.19F
#NELSON 3SW     N/A         31  30  96  CALM    30.42F
#NILE           N/A         32  31  96  CALM    29.46F
#TEANAWAY 4NE   N/A         34  34  100 CALM    N/A
#TROUT LAKE 1NE N/A         32  31  96  CALM    30.19F
#TROUT LAKE 1E  N/A         31  30  96  CALM    30.16F
$$

WAZ521-171410-
SIMCOE HIGHLANDS

CITY            SKY/WX      TMP DP  RH  WIND    PRES   REMARKS
#BICKLETON HS   N/A         35  34  96  N2      29.74F
#CENTERVILLE 1SWN/A         30  27  88  CALM    30.17F
#GOLDENDALE 1NE N/A         34  27  75  CALM    N/A
#GOLDENDALE 4W  N/A         32  29  89  CALM    30.16F
#GOODNOE HILLS  N/A         36  33  89  SW2     30.06F
#LYLE 6NE       N/A         36  35  96  CALM    30.19F
#PITT 4SE       N/A         35  34  96  CALM    30.20F
$$

WAZ026-171410-
KITTITAS VALLEY

CITY            SKY/WX      TMP DP  RH  WIND    PRES   REMARKS
ELLENSBURG AP   CLOUDY      37  34  89  CALM    30.16F
#ELLENSBURG CWU N/A         35  33  92  CALM    30.16F
#ELLENSBURG 3NE N/A         34  33  96  CALM    28.25F
#ELLENSBURG 1E  N/A         35  34  96  CALM    30.28F
#KITTITAS 3S    N/A         34  33  96  CALM    30.22F
#MANASTASH RDG  N/A         34  34  100 CALM    N/A
#ROCKY CYN DOT  N/A         35  35  100 CALM    N/A
#RYEGRASS DOT   N/A         35  33  92  CALM    N/A
$$

WAZ027-171410-
YAKIMA VALLEY

CITY            SKY/WX      TMP DP  RH  WIND    PRES   REMARKS
SUNNYSIDE AP    CLOUDY      33  32  96  CALM    30.20F FOG
YAKIMA AIRPORT  CLOUDY      39  36  89  W6      30.19F
YAKIMA-VAGABOND MOCLDY      37  34  89  E8      30.15F
#DONALD 2NE     N/A         38  27  64  N9      29.00F
#GRANDVIEW      N/A         35  33  92  CALM    30.22F
#MABTON         N/A         36  35  96  CALM    30.19F
#MOXEE 2E       N/A         36  N/A N/A E3      30.13F
#NACHES 2SW     N/A         37  36  96  CALM    30.18F
#OUTLOOK DOT    N/A         33  33  100 CALM    30.17F
#PARKER DOT     N/A         39  36  89  SE3     30.18F
#TERRACE HTS    N/A         35  34  96  CALM    30.18F
#TOPPENISH      N/A         34  33  96  CALM    30.14F
#I82 S UMTANUM RN/A         36  34  92  N12     N/A    WCI 28
#UNION GAP DOT  N/A         35  34  96  NE2     30.22F
#W YAKIMA       N/A         36  35  96  N1      30.23F
#WILEY CITY 3W  N/A         36  32  85  CALM    30.14F
#ZILLAH DOT     N/A         33  N/A N/A NE1     N/A
$$

WAZ028-171410-
LOWER COLUMBIA BASIN...WASHINGTON

CITY            SKY/WX      TMP DP  RH  WIND    PRES   REMARKS
HANFORD         CLOUDY      38  37  96  NW12    30.18F WCI 30
PASCO           CLOUDY      36  36  100 SW5     30.21F FOG
PROSSER AWOS    N/A         36  36  100 CALM    30.23F
RICHLAND AWOS   CLOUDY      37  37  100 CALM    30.22F
#BENTON CITY    N/A         35  34  96  CALM    30.13F
#CONNELL 5N     N/A         33  32  96  NW3     30.21F
#CONNELL 5NW    N/A         33  11  39  CALM    30.16F
#ELTOPIA 6NW    N/A         37  37  100 CALM    29.15F
#KAHLOTUS       N/A         35  34  96  CALM    30.20F
#KENNEWICK 3S   N/A         37  36  96  CALM    30.22F
#PATERSON       N/A         41  38  89  E6      30.18F
#PROSSER DOT    N/A         36  36  100 CALM    30.21F
#SAGEMOOR 2W    N/A         36  35  96  N2      30.09F
#TOUCHET 2S     N/A         36  35  96  NW2     30.19F
#WEST PASCO     N/A         35  34  96  CALM    30.23F
$$

WAZ029-171410-
FOOTHILLS OF THE BLUES...WASHINGTON

CITY            SKY/WX      TMP DP  RH  WIND    PRES   REMARKS
WALLA WALLA AP  FOG         36  35  96  S5      30.17F VSB 1/4
#CLYDE 6NW      N/A         35  33  92  CALM    30.19F
#LOWDEN 2SE     N/A         34  33  96  CALM    30.16F
#PLEASANT VIEW 1N/A         35  34  96  CALM    30.24F
#PRESCOTT       N/A         36  33  89  CALM    30.19S
#WHITMAN COLLEGEN/A         34  33  96  SE1     30.24F
#WAITSBURG 5S   N/A         32  30  92  E1      30.28F
#WAITSBURG 6SSE N/A         36  30  79  CALM    30.01F
#WAITSBURG 8N   N/A          0  N/A N/A N2      29.88S
#WALLA WALLA 5E N/A         35  33  92  CALM    N/A
#WHITMAN MISSIONN/A         35  33  92  CALM    30.23F
$$

WAZ030-171410-
BLUE MOUNTAINS...WASHINGTON

CITY            SKY/WX      TMP DP  RH  WIND    PRES   REMARKS
#DIXIE 5SE      N/A         48  25  40  E9      30.04F
$$

ORZ009-041-WAZ024-171410-
COLUMBIA RIVER GORGE

CITY            SKY/WX      TMP DP  RH  WIND    PRES   REMARKS
HOOD RIVER AP   CLOUDY      37  37  100 CALM    30.19F FOG
THE DALLES AP   CLOUDY      40  39  96  CALM    30.19F
#ARLINGTON AIRPON/A         36  35  96  W3      30.20F
#ARLINGTON HS   N/A         37  36  96  CALM    30.11F
#CELILO DOT     N/A         40  37  89  S12     N/A    WCI 33
#LYLE           N/A         40  39  96  CALM    30.21F
#MARYHILL       N/A         36  N/A N/A N1      N/A
#MURDOCK        N/A         40  38  92  CALM    30.17F
#RUFUS DOT      N/A         38  N/A N/A SE2     N/A
#SMITHVILLE     N/A         40  38  92  CALM    30.15F

$$

ORZ510-171410-
NORTH CENTRAL OREGON

CITY            SKY/WX      TMP DP  RH  WIND    PRES   REMARKS
#ANTELOPE       N/A         30  29  96  CALM    30.05F
#CHENOWITH 1W   N/A         37  37  100 E1      N/A
#COW CYN RST AREN/A         40  N/A N/A CALM    N/A
#DUFUR          N/A         35  34  96  CALM    30.15F
#DUFUR 9E       N/A         36  35  96  SE15    30.21F WCI 27
#GRASS VALLEY 1SN/A         33  32  96  CALM    30.12F
#KENT DOT       N/A         34  30  85  CALM    N/A
#MAUPIN SCHOOL  N/A         34  31  89  CALM    30.21F
#SHANIKO 5WSW   N/A         39  N/A N/A CALM    N/A
#SHANIKO 4NW    N/A         39  35  85  CALM    30.09F
#TYGH VALLEY 2NEN/A         34  32  92  CALM    30.19F
#WAPANITIA AIRPON/A         32  31  96  CALM    30.20F
#WASCO DOT      N/A         36  36  100 E2      N/A
$$

ORZ511-171410-
CENTRAL OREGON

CITY            SKY/WX      TMP DP  RH  WIND    PRES   REMARKS
BEND AIRPORT    MOCLDY      37  34  89  CALM    30.12F
PRINEVILLE AP   CLOUDY      43  36  76  S9      30.12F
REDMOND AIRPORT MOCLDY      35  33  92  S5      30.11F
#ASHWOOD SCHOOL N/A         30  29  96  CALM    30.07F
#BEND 1SW       N/A         40  36  85  W2      N/A
#BEND-AWBREY    N/A         45  38  76  S8      30.13S
#BEND-KIM LN    N/A         34  33  96  CALM    30.11F
#CULVER         N/A         31  30  96  CALM    30.04F
#CULVER 8W      N/A         33  31  92  CALM    30.10F
#LAKE BILLY CHINN/A         33  N/A N/A SE3     30.20F
#MADRAS 4S      N/A         33  29  85  CALM    N/A
#POWELL BUTTE   N/A         45  32  60  S14     30.04F WCI 39
#PRINEVILLE     N/A         36  34  92  CALM    30.25F
#PRINEVILLE 3N  N/A         36  33  89  CALM    30.17F
#WARM SPRINGS   N/A         34  33  96  CALM    30.04F

$$


ORZ509-171410-
EAST SLOPES OF OREGON CASCADES

CITY            SKY/WX      TMP DP  RH  WIND    PRES   REMARKS
SISTERS AWOS    N/A         30  28  92  CALM    30.06F
#BLUE BOX PASS  N/A         35  N/A N/A CALM    N/A
#CAMP SHERMAN   N/A         30  28  92  CALM    30.25R
#LA PINE DOT    N/A         36  33  89  SW3     N/A
#LA PINE 4NW    N/A         35  31  85  CALM    30.22F
#LAVA BUTTE DOT N/A         35  30  82  CALM    N/A
#SISTERS ODOT   N/A         31  30  96  CALM    N/A
#SISTERS 3N     N/A         30  28  92  CALM    30.11F
#SUNRIVER       N/A         34  32  92  CALM    30.19F
#TUMALO 3W      N/A         44  37  76  S5      30.01F
#WANOGA BUTTE D N/A         33  33  100 W9      N/A

$$

ORZ044-171410-
LOWER COLUMBIA BASIN...OREGON

CITY            SKY/WX      TMP DP  RH  WIND    PRES   REMARKS
HERMISTON       FOG         33  33  100 CALM    30.17F VSB 1/4
#BOARDMAN SCHOOLN/A         35  34  96  CALM    30.18F
#BOARDMAN 8SW   N/A         38  37  96  N3      30.19F
#ECHO 8SW       N/A         35  35  100 W1      30.18F
#I-84 EX 198 DOTN/A         36  35  96  E3      N/A
#IONE SCHOOL    N/A         33  21  61  CALM    30.22S
#UMATILLA       N/A         38  35  89  CALM    30.12F
$$

ORZ507-171410-
NORTHERN FOOTHILLS OF THE BLUES

CITY            SKY/WX      TMP DP  RH  WIND    PRES   REMARKS
PENDLETON AIRPT CLOUDY      42  32  67  S5      30.13F
#ADAMS 3WNW     N/A         44  36  73  E1      30.16F
#ATHENA         N/A         46  36  68  E5      30.19F
#HELIX SCHOOL   N/A         43  36  76  E15     30.17F WCI 36
#HELIX 3N       N/A         42  35  76  E10     30.14F
#HOLDMAN 6E     N/A         43  37  79  E3      29.97F
#M-FREEWATER 5SEN/A         50  36  58  E5      30.13F
#PDT AQUATIC CTRN/A         33  33  100 CALM    30.12F
#PDT SUNRIDGE   N/A         33  32  96  CALM    30.15F
#PENDLETON 6SE  N/A         48  35  60  SE31G43 30.09F WCI 39
#PENDLETON 7NW  N/A         36  32  85  CALM    28.33F
#PILOT ROCK     N/A         39  34  82  CALM    30.12F
#TUTUILLA       N/A         45  34  65  SE18    30.18F WCI 37
#UMAPINE 2E     N/A         36  35  96  CALM    30.16F

$$

ORZ508-171410-
SOUTHERN FOOTHILLS OF THE BLUES

CITY            SKY/WX      TMP DP  RH  WIND    PRES   REMARKS
LEXINGTON       FOG         34  34  100 CALM    30.17F VSB 1/4
#AJAX           N/A         35  29  78  NW7     30.26F
#CONDON 5W      N/A         41  32  70  SE7     30.07F
#FOSSIL SCHOOL  N/A         45  37  73  SE2     30.05F
#HEPPNER EOC    N/A         36  32  85  CALM    30.11F
#HEPPNER 4NE    N/A         43  34  70  CALM    30.16F
#LEXINGTON 2SE  N/A         33  30  89  CALM    30.12F
#MIKKALO        N/A         36  35  96  CALM    30.24F
#OLEX 4N        N/A         37  36  96  CALM    30.14F
#RUGGS 5NE      N/A         42  31  65  CALM    30.27S
#RUGGS 2SW      N/A         41  33  73  SW5     30.18F

$$

ORZ502-503-171410-
BLUE MOUNTAINS

CITY            SKY/WX      TMP DP  RH  WIND    PRES   REMARKS
MEACHAM         CLOUDY      36  31  82  CALM    30.16F
#BATTLE MTN DOT N/A         N/A N/A N/A S12     N/A
#GRANITE        N/A         32  27  82  SW3     29.83F
#LADD CYN SMT   N/A         35  33  92  SE16    N/A    WCI 25
#LADD CREEK ODOTN/A         38  32  79  S12     N/A    WCI 30
#LONG CREEK HS  N/A         45  35  68  SW15    30.13F WCI 38
#N POWDER DOT   N/A         36  34  92  SE15    N/A    WCI 27
#PIKES PEAK     N/A         47  24  40  S28     27.99S WCI 38
#SUMMERVILLE 5NWN/A         38  33  82  S10     28.16F
#TOLLGATE       N/A         32  30  92  SW7     30.19F
#TROY SCHOOL    N/A         37  35  92  CALM    30.16F
#UKIAH          N/A         26  25  96  CALM    30.16F
#WESTON 4E      N/A         40  33  76  E16     30.16F WCI 32
$$

ORZ505-171410-
JOHN DAY BASIN

CITY            SKY/WX      TMP DP  RH  WIND    PRES   REMARKS
JOHN DAY        MOCLDY      38  30  73  E5      30.19F
#ANTELOPE 9ESE  N/A         33  32  96  CALM    N/A
#DAYVILLE SCHOOLN/A         45  31  58  E7      30.13F
#MITCHELL 8NW   N/A         45  35  68  S13     30.19F WCI 39
#MONUMENT HS    N/A         30  27  88  CALM    30.12F
#MT. VERNON 5SE N/A         39  31  73  E9      30.14F
#SPRAY SCHOOL   N/A         32  N/A N/A CALM    N/A
#WINLOCK        N/A         48  41  77  NW2     30.09F
$$

ORZ506-171410-
OCHOCO AND JOHN DAY HIGHLANDS

CITY            SKY/WX      TMP DP  RH  WIND    PRES   REMARKS
#HORSE RIDGE DO N/A         42  32  67  SE3     N/A
#IZEE 6NW       N/A         38  34  85  NW3     N/A
#PAULINA ODOT   N/A         32  30  92  S1      N/A
#PINE MTN OBS   N/A         34  32  92  S18     N/A    WCI 23
#PRAIRIE CITY   N/A         29  24  81  CALM    30.36F
#SENECA         N/A         28  N/A N/A W1      N/A
#SENECA 9NW     N/A         29  28  96  CALM    30.29F
$$

ORZ049-171410-
GRANDE RONDE VALLEY

CITY            SKY/WX      TMP DP  RH  WIND    PRES   REMARKS
LA GRANDE       CLOUDY      40  33  76  S20G26  30.26F WCI 30
#COVE SCHOOL    N/A         34  32  92  CALM    30.24F
#COVE 6NW       N/A         39  35  85  S7      30.29F
#ELGIN 3N       N/A         36  30  79  S2      30.19F
#ELGIN 1E       N/A         37  32  82  CALM    N/A
#IMBLER SCHOOL  N/A         38  34  85  S5      30.19F
#ISLAND CITY 4N N/A         44  43  96  CALM    30.07F
#LADD CYN DOT   N/A         40  36  85  S15     N/A    WCI 32
#UNION 1S       N/A         40  34  79  S10     30.31F
$$

ORZ050-171410-
WALLOWA COUNTY

CITY            SKY/WX      TMP DP  RH  WIND    PRES   REMARKS
JOSEPH AIRPORT  CLOUDY      30  30  100 CALM    30.24F
#ENTERPRISE HS  N/A         33  32  96  CALM    30.21F
#IMNAHA SCHOOL  N/A         31  29  92  SE2     30.26F
#IMNAHA 10S     N/A         43  32  65  SW7     30.21F
#JOSEPH         N/A         31  27  85  CALM    30.38F
#JOSEPH 3N      N/A         30  26  85  CALM    30.24S
#JOSEPH 3W      N/A         28  27  96  CALM    30.03S
#LOSTINE        N/A         31  29  92  CALM    30.14F
#LOSTINE 3SE    N/A         32  31  96  CALM    30.29F
#MT HOWARD 8000 N/A         32  -3  21  S12     30.14F WCI 23
#PROMISE 1S     N/A         34  31  89  E1      30.38F
#WALLOWA LAKE   N/A         27  26  96  CALM    30.23F
#WALLOWA SCHOOL N/A         31  30  96  CALM    30.21F



$$



USA.gov is the U.S. government's official web portal to all federal, state and local government web resources and services.